EW3286 Weather Reports


Display with metric or nautical units.
time (UTC)temp
F
wind
direction
speed
MPH
gust
MPH
rain 1hr
in
rain 24hr
in
rain mn
in
humidity
%
barometer
mb
20260504081533 53 96 0.0 0.0 0.00 0.00 0.00 57 1000.4
20260504044607 57 113 0.0 0.0 0.00 0.00 0.00 48 1003.5
20260504043053 56 149 0.0 0.0 0.00 0.00 0.00 49 1003.6
20260504041550 55 139 0.0 0.0 0.00 0.00 0.00 51 1003.7
20260504040055 54 136 0.0 0.0 0.00 0.00 0.00 52 1004.1
20260504034545 54 124 0.0 0.0 0.00 0.00 0.00 51 1004.3
20260504033043 54 148 0.0 0.0 0.00 0.00 0.00 51 1004.6
20260504031542 55 148 0.0 0.0 0.00 0.00 0.00 50 1004.9
20260504030041 55 148 0.0 0.0 0.00 0.00 0.00 49 1005.1
20260504024539 55 148 0.0 0.0 0.00 0.00 0.00 46 1005.2
20260504023040 56 148 0.0 0.0 0.00 0.00 0.00 45 1005.2
20260504021540 57 159 0.0 0.0 0.00 0.00 0.00 43 1005.0
20260504020037 58 159 0.0 0.0 0.00 0.00 0.00 42 1005.0
20260504014541 60 153 0.0 0.0 0.00 0.00 0.00 41 1004.9
20260504013049 62 159 0.0 0.0 0.00 0.00 0.00 39 1005.1
20260504011538 65 159 0.0 0.0 0.00 0.00 0.00 35 1005.1
20260504010039 67 169 0.0 0.0 0.00 0.00 0.00 30 1005.2
20260504004534 68 182 0.0 0.0 0.00 0.00 0.00 29 1005.3
20260504003036 68 175 0.0 0.0 0.00 0.00 0.00 26 1005.4
20260504001538 69 175 0.0 0.0 0.00 0.00 0.00 27 1005.4
20260504000032 69 204 0.0 0.0 0.00 0.00 0.00 28 1005.5
20260503234532 70 178 0.0 0.0 0.00 0.00 0.00 27 1005.6
20260503233029 70 199 0.0 0.0 0.00 0.00 0.00 27 1005.7
20260503231528 70 182 0.0 0.0 0.00 0.00 0.00 28 1005.6
20260503230026 70 225 0.0 0.0 0.00 0.00 0.00 27 1005.8
20260503224523 70 196 0.0 0.0 0.00 0.00 0.00 26 1005.9
20260503223023 70 215 0.0 0.0 0.00 0.00 0.00 25 1006.0
20260503221523 70 183 0.0 0.0 0.00 0.00 0.00 25 1006.2
20260503220025 70 183 0.0 0.0 0.00 0.00 0.00 29 1006.2
20260503214522 70 236 0.0 0.0 0.00 0.00 0.00 30 1006.3
20260503213014 70 209 0.0 0.0 0.00 0.00 0.00 28 1006.5
20260503211510 70 206 0.0 0.0 0.00 0.00 0.00 31 1006.7
20260503210007 70 234 0.0 0.0 0.00 0.00 0.00 29 1006.8
20260503204507 70 194 0.0 0.0 0.00 0.00 0.00 32 1007.1
20260503203100 69 235 0.0 0.0 0.00 0.00 0.00 31 1007.1
20260503201554 69 182 0.0 0.0 0.00 0.00 0.00 32 1007.5
20260503200049 68 257 0.0 0.0 0.00 0.00 0.00 35 1007.6
20260503194545 68 265 0.0 0.0 0.00 0.00 0.00 33 1007.9
20260503193045 68 234 0.0 0.0 0.00 0.00 0.00 35 1008.2
20260503191539 67 197 0.0 0.0 0.00 0.00 0.00 34 1008.4
20260503190035 67 225 0.0 0.0 0.00 0.00 0.00 35 1008.6
20260503184534 66 185 0.0 0.0 0.00 0.00 0.00 36 1008.6
20260503183032 66 236 0.0 0.0 0.00 0.00 0.00 36 1008.8
20260503181528 65 253 0.0 0.0 0.00 0.00 0.00 37 1009.0
20260503180127 65 233 0.0 0.0 0.00 0.00 0.00 38 1009.0
20260503174524 65 244 0.0 0.0 0.00 0.00 0.00 38 1009.2
20260503173022 65 227 0.0 0.0 0.00 0.00 0.00 40 1009.2
20260503171524 64 248 0.0 0.0 0.00 0.00 0.00 41 1009.3